{"data":{"norad_id":62085,"intl_designator":"2024-219E","name":"KINEIS-5B","alt_names":[],"object_type":"PAYLOAD","status":"ACTIVE","operator":null,"country":"FR","launch_date":"2024-11-25","launch_site_code":"RLLB","launch_vehicle":null,"mission":null,"orbit_class":"UNKNOWN","rcs_meters":null,"size_class":null,"mass_kg":null,"dimensions":null,"purposes":[],"wikipedia_slug":null,"has_3d_model":false,"image_url":null,"decayed_at":null,"tle_current":{"epoch":"2026-09-22T21:56:14.632800Z","epoch_age_seconds":98926,"freshness":"FRESH","line1":"1 62085U 24219E   26265.91405825  .00000671  00000+0  99022-4 0  9993","line2":"2 62085  98.0172  69.2576 0001268   1.1102 359.0111 14.78499391 98447","mean_motion":14.78499391,"eccentricity":0.0001268,"inclination_deg":98.0172,"raan_deg":69.2576,"arg_perigee_deg":1.1102,"mean_anomaly_deg":359.0111,"bstar":9.9022e-5,"rev_number":9844,"period_min":97.396049586875,"perigee_km":633.1756867384,"apogee_km":634.95398112348,"semimajor_km":7012.2018339309,"source":"CELESTRAK","updated_at":"2026-09-23T09:00:21.211774Z"}}}